Regional Weather Roundup
Issued by NWS

Home | Current Version | Previous Version | Graphics & Text | Print | Product List | Glossary On
Versions: 1 2 3 4 5 6 7 8 9 10 11 12 13 14 15 16 17 18 19 20 21 22 23 24 25 26 27 28 29 30 31 32 33 34 35 36 37 38 39 40 41 42 43 44 45 46 47 48 49 50
000
ASUS45 KBOI 020810
RWRID
WEATHER ROUNDUP FOR IDAHO
NATIONAL WEATHER SERVICE BOISE ID
200 AM MDT TUE SEP 02 2014

NOTE: "FAIR" INDICATES FEW OR NO CLOUDS BELOW 12000 FEET
WITH NO SIGNIFICANT WEATHER AND/OR OBSTRUCTIONS TO VISIBILITY

IDZ012-014-020900-
SOUTHWEST IDAHO


CITY           SKY/WX    TMP DP  RH WIND       PRES   REMARKS
BOISE          CLEAR     58  35  42 SE6       29.98S
CALDWELL       CLEAR     52  37  58 CALM      29.99S
MOUNTAIN HOME  CLEAR     53  38  58 E5        29.99S
$$

IDZ016-017-020900-
SOUTHCENTRAL IDAHO


CITY           SKY/WX    TMP DP  RH WIND       PRES   REMARKS
BURLEY         CLEAR     50  42  74 S5        30.04S
JEROME         CLEAR     51  39  63 SE5       30.04S
TWIN FALLS     CLEAR     57  39  51 S9        30.04S
$$

IDZ019>023-020900-
SOUTHEAST IDAHO


CITY           SKY/WX    TMP DP  RH WIND       PRES   REMARKS
IDAHO FALLS    CLEAR     53  38  56 S8        30.06S
POCATELLO      CLEAR     49  39  68 CALM      30.06F
REXBURG        CLEAR     56  37  49 S7        30.06S
$$

IDZ006-010-011-018-031-032-020900-
CENTRAL IDAHO MOUNTAINS


CITY           SKY/WX    TMP DP  RH WIND       PRES   REMARKS
MCCALL         CLEAR     43  35  73 CALM      30.06F
HAILEY         CLEAR     46  36  66 NW8       30.10R
STANLEY          N/A     34  28  79 S5        30.17R WCI  30
SALMON         CLEAR     46  43  87 CALM      30.03S
CHALLIS        CLEAR     49  36  61 CALM      30.06R
$$

IDZ002-004-006-007-026-020900-
NORTHERN IDAHO


CITY           SKY/WX    TMP DP  RH WIND       PRES   REMARKS
LEWISTON       CLEAR     60  42  51 CALM      29.92S
LOWELL           N/A     52  48  86 NW3       30.00S
COEUR D`ALENE  PTCLDY    55  43  62 S8        29.92F
MULLAN PASS    CLEAR     46  36  68 SW7       30.03F
$$


USA.gov is the U.S. government's official web portal to all federal, state and local government web resources and services.